Find Starlink 37437

NORAD ID: 69170 Int'l Des: 2026-111 Owner: SPXS Country: US Constellation: starlink operational
LEOCIRCULAR

現在のビュー

3D地球を読み込み中...

About Starlink 37437

Starlink 37437 (NORAD 69170) is a starlink constellation satellite (v2 mini) launched May 21, 2026 by SPXS of US. It operates in LEO, CIRCULAR orbit with a mass of 575.00 kg.

Starlink 37437について

説明を読み込み中...

次回通過

Passes for default location (London). Set your location on the main map for personalized predictions.

高度履歴

Loading altitude history...

軌道要素

1 69170U 26111Y 26166.91668981 -.02504320 00000-0 -27370-1 0 9991
2 69170 53.1595 158.1257 0001341 89.0234 71.9306 15.66172952 5349
Epoch: Jun 15, 2026 • Age: 8 hours

現在のステータス

高度 375.3 km
速度 7.69 km/s
衛星直下点 4.74°N, 17.27°W
打ち上げ日 May 21, 2026
運用期間 25 days
タイプ internet

技術仕様

分類 Payload
質量 575.00 kg
乾燥質量 530.00 kg
総質量 575.00 kg
長さ 0.30 m
直径 4.10 m
スパン 29.00 m
形状 Box + pan
製造者 SPXS
バスタイプ Starlink V2MO
フェーズステータス In Orbit
所有者/国 SPXS/US

Most Searched